| time (UTC) | temp F | wind direction | speed MPH | gust MPH | rain 1hr in | rain 24hr in | rain mn in | humidity % | barometer mb |
| 20260905190823 | 57 | 315 | 56.0 | 75.0 | 0.00 | 0.10 | 0.00 | 58 | 1013.8 |
| 20260905185823 | 58 | 315 | 56.0 | 75.0 | 0.00 | 0.10 | 0.00 | 62 | 1013.4 |
| 20260905184822 | 58 | 315 | 56.0 | 75.0 | 0.00 | 0.10 | 0.00 | 64 | 1013.0 |
| 20260905183822 | 58 | 315 | 56.0 | 75.0 | 0.00 | 0.10 | 0.00 | 66 | 1013.1 |
| 20260905182822 | 59 | 22 | 56.0 | 75.0 | 0.00 | 0.10 | 0.00 | 68 | 1013.1 |
| 20260905181822 | 59 | 315 | 56.0 | 75.0 | 0.00 | 0.10 | 0.00 | 70 | 1013.1 |
| 20260905180822 | 60 | 315 | 56.0 | 75.0 | 0.00 | 0.10 | 0.00 | 71 | 1013.1 |
| 20260905175822 | 62 | 45 | 56.0 | 75.0 | 0.00 | 0.10 | 0.00 | 69 | 1013.5 |
| 20260905174822 | 62 | 315 | 56.0 | 75.0 | 0.00 | 0.10 | 0.00 | 68 | 1012.8 |
| 20260905173822 | 63 | 315 | 56.0 | 75.0 | 0.00 | 0.10 | 0.00 | 67 | 1012.6 |
| 20260905172822 | 63 | 315 | 56.0 | 75.0 | 0.00 | 0.10 | 0.00 | 65 | 1012.5 |
| 20260905171822 | 64 | 202 | 56.0 | 75.0 | 0.00 | 0.10 | 0.00 | 64 | 1012.2 |
| 20260905170822 | 64 | 315 | 56.0 | 75.0 | 0.00 | 0.10 | 0.00 | 64 | 1012.1 |
| 20260905165821 | 64 | 315 | 56.0 | 75.0 | 0.00 | 0.10 | 0.00 | 63 | 1011.9 |
| 20260905164821 | 64 | 0 | 56.0 | 75.0 | 0.00 | 0.10 | 0.00 | 62 | 1011.9 |
| 20260905163821 | 65 | 315 | 56.0 | 75.0 | 0.00 | 0.10 | 0.00 | 60 | 1011.9 |
| 20260905162821 | 65 | 157 | 56.0 | 75.0 | 0.00 | 0.10 | 0.00 | 60 | 1011.8 |
| 20260905161821 | 66 | 315 | 56.0 | 75.0 | 0.00 | 0.10 | 0.00 | 59 | 1011.8 |
| 20260905160821 | 66 | 315 | 56.0 | 75.0 | 0.00 | 0.10 | 0.00 | 58 | 1011.7 |
| 20260905155821 | 66 | 315 | 56.0 | 75.0 | 0.00 | 0.10 | 0.00 | 58 | 1011.7 |
| 20260905154821 | 66 | 315 | 56.0 | 75.0 | 0.00 | 0.10 | 0.00 | 58 | 1011.7 |
| 20260905153821 | 66 | 0 | 56.0 | 75.0 | 0.00 | 0.10 | 0.00 | 58 | 1011.5 |
| 20260905152821 | 67 | 0 | 56.0 | 75.0 | 0.00 | 0.10 | 0.00 | 58 | 1011.4 |
| 20260905151821 | 67 | 315 | 56.0 | 75.0 | 0.00 | 0.10 | 0.00 | 58 | 1011.4 |
| 20260905150821 | 67 | 315 | 56.0 | 75.0 | 0.00 | 0.10 | 0.00 | 58 | 1011.2 |
| 20260905145820 | 67 | 112 | 56.0 | 75.0 | 0.00 | 0.10 | 0.00 | 58 | 1011.2 |
| 20260905144820 | 68 | 135 | 56.0 | 75.0 | 0.00 | 0.10 | 0.00 | 59 | 1011.2 |
| 20260905143820 | 67 | 315 | 56.0 | 75.0 | 0.00 | 0.10 | 0.00 | 58 | 1011.2 |
| 20260905142820 | 67 | 315 | 56.0 | 75.0 | 0.00 | 0.10 | 0.00 | 59 | 1011.4 |
| 20260905141820 | 67 | 315 | 56.0 | 75.0 | 0.00 | 0.10 | 0.00 | 58 | 1011.4 |
| 20260905140820 | 67 | 135 | 56.0 | 75.0 | 0.00 | 0.10 | 0.00 | 58 | 1011.4 |
| 20260905135820 | 67 | 315 | 56.0 | 75.0 | 0.00 | 0.10 | 0.00 | 58 | 1011.4 |
| 20260905134820 | 68 | 315 | 56.0 | 75.0 | 0.00 | 0.10 | 0.00 | 58 | 1011.4 |
| 20260905133820 | 67 | 315 | 56.0 | 75.0 | 0.00 | 0.10 | 0.00 | 58 | 1011.4 |
| 20260905132820 | 68 | 135 | 56.0 | 75.0 | 0.00 | 0.10 | 0.00 | 58 | 1011.3 |
| 20260905131820 | 68 | 0 | 56.0 | 75.0 | 0.00 | 0.10 | 0.00 | 57 | 1011.4 |
| 20260905130819 | 68 | 315 | 56.0 | 75.0 | 0.00 | 0.10 | 0.00 | 57 | 1011.4 |
| 20260905125819 | 68 | 315 | 56.0 | 75.0 | 0.00 | 0.10 | 0.00 | 58 | 1011.5 |
| 20260905124819 | 67 | 0 | 56.0 | 75.0 | 0.00 | 0.10 | 0.00 | 58 | 1011.4 |
| 20260905123819 | 67 | 157 | 56.0 | 75.0 | 0.00 | 0.10 | 0.00 | 58 | 1011.6 |
| 20260905122819 | 67 | 157 | 56.0 | 75.0 | 0.00 | 0.10 | 0.00 | 60 | 1011.7 |
| 20260905121819 | 67 | 135 | 56.0 | 75.0 | 0.00 | 0.10 | 0.00 | 60 | 1011.5 |
| 20260905120819 | 67 | 315 | 56.0 | 75.0 | 0.00 | 0.10 | 0.00 | 61 | 1011.5 |
| 20260905115819 | 67 | 315 | 56.0 | 75.0 | 0.00 | 0.10 | 0.00 | 61 | 1011.5 |
| 20260905114819 | 67 | 315 | 56.0 | 75.0 | 0.00 | 0.10 | 0.00 | 63 | 1011.5 |
| 20260905113819 | 67 | 315 | 56.0 | 75.0 | 0.00 | 0.10 | 0.00 | 62 | 1011.2 |
| 20260905112819 | 67 | 315 | 56.0 | 75.0 | 0.00 | 0.10 | 0.00 | 64 | 1011.3 |
| 20260905111819 | 66 | 315 | 56.0 | 75.0 | 0.00 | 0.10 | 0.00 | 65 | 1011.2 |
| 20260905110818 | 66 | 135 | 56.0 | 75.0 | 0.00 | 0.10 | 0.00 | 65 | 1011.3 |
| 20260905105818 | 66 | 0 | 56.0 | 75.0 | 0.00 | 0.10 | 0.00 | 67 | 1011.1 |
| 20260905104818 | 66 | 135 | 56.0 | 75.0 | 0.00 | 0.10 | 0.00 | 66 | 1011.2 |
| 20260905103818 | 66 | 315 | 56.0 | 75.0 | 0.00 | 0.10 | 0.00 | 67 | 1011.0 |
| 20260905102818 | 65 | 315 | 56.0 | 75.0 | 0.00 | 0.10 | 0.00 | 68 | 1011.1 |
| 20260905101818 | 64 | 315 | 56.0 | 75.0 | 0.00 | 0.10 | 0.00 | 68 | 1011.1 |
| 20260905100818 | 65 | 315 | 56.0 | 75.0 | 0.00 | 0.10 | 0.00 | 68 | 1010.9 |
| 20260905095818 | 65 | 0 | 56.0 | 75.0 | 0.00 | 0.10 | 0.00 | 67 | 1010.8 |
| 20260905094818 | 66 | 0 | 56.0 | 75.0 | 0.00 | 0.10 | 0.00 | 68 | 1010.7 |
| 20260905093818 | 65 | 315 | 56.0 | 75.0 | 0.00 | 0.10 | 0.00 | 70 | 1010.7 |
| 20260905092818 | 64 | 90 | 56.0 | 75.0 | 0.00 | 0.10 | 0.00 | 70 | 1010.8 |
| 20260905091817 | 64 | 90 | 56.0 | 75.0 | 0.00 | 0.10 | 0.00 | 71 | 1010.7 |
| 20260905090817 | 64 | 315 | 56.0 | 75.0 | 0.00 | 0.10 | 0.00 | 71 | 1010.6 |
| 20260905085817 | 64 | 315 | 56.0 | 75.0 | 0.00 | 0.10 | 0.00 | 71 | 1010.7 |
| 20260905084817 | 63 | 90 | 56.0 | 75.0 | 0.00 | 0.10 | 0.00 | 72 | 1010.7 |
| 20260905083817 | 64 | 0 | 56.0 | 75.0 | 0.00 | 0.10 | 0.00 | 71 | 1010.7 |
| 20260905082817 | 64 | 315 | 56.0 | 75.0 | 0.00 | 0.10 | 0.00 | 71 | 1010.5 |
| 20260905081817 | 64 | 315 | 56.0 | 75.0 | 0.00 | 0.10 | 0.00 | 67 | 1010.5 |
| 20260905080817 | 63 | 315 | 56.0 | 75.0 | 0.00 | 0.10 | 0.00 | 62 | 1010.4 |
| 20260905075817 | 63 | 315 | 56.0 | 75.0 | 0.00 | 0.10 | 0.00 | 59 | 1010.4 |
| 20260905074817 | 62 | 315 | 56.0 | 75.0 | 0.00 | 0.10 | 0.00 | 51 | 1010.3 |
| 20260905073817 | 62 | 0 | 56.0 | 75.0 | 0.00 | 0.10 | 0.00 | 43 | 1010.2 |
| 20260905072817 | 61 | 315 | 56.0 | 75.0 | 0.00 | 0.10 | 0.00 | 34 | 1010.1 |
| 20260905071816 | 61 | 315 | 56.0 | 75.0 | 0.00 | 0.10 | 0.00 | 27 | 1010.0 |
| 20260905070816 | 61 | 315 | 56.0 | 75.0 | 0.00 | 0.10 | 0.00 | 14 | 1010.0 |
| 20260905065816 | 60 | 315 | 56.0 | 75.0 | 0.00 | 0.10 | 0.00 | 10 | 1010.0 |
| 20260905064817 | 60 | 315 | 56.0 | 75.0 | 0.00 | 0.10 | 0.00 | 10 | 1009.9 |
| 20260905063816 | 60 | 315 | 56.0 | 75.0 | 0.00 | 0.10 | 0.00 | 10 | 1009.7 |
| 20260905062816 | 60 | 315 | 56.0 | 75.0 | 0.00 | 0.10 | 0.00 | 10 | 1009.6 |
| 20260905061816 | 60 | 315 | 56.0 | 75.0 | 0.00 | 0.10 | 0.00 | 10 | 1009.5 |
| 20260905060816 | 60 | 315 | 56.0 | 75.0 | 0.00 | 0.10 | 0.00 | 10 | 1009.3 |
| 20260905055816 | 60 | 315 | 56.0 | 75.0 | 0.00 | 0.10 | 0.00 | 10 | 1009.2 |
| 20260905054816 | 60 | 315 | 56.0 | 75.0 | 0.00 | 0.10 | 0.00 | 10 | 1009.0 |
| 20260905053816 | 59 | 315 | 56.0 | 75.0 | 0.00 | 0.10 | 0.00 | 10 | 1008.9 |
| 20260905052816 | 59 | 315 | 56.0 | 75.0 | 0.00 | 0.10 | 0.00 | 10 | 1008.9 |
| 20260905051815 | 59 | 315 | 56.0 | 75.0 | 0.00 | 0.10 | 0.00 | 10 | 1008.7 |
| 20260905050815 | 59 | 0 | 56.0 | 75.0 | 0.00 | 0.10 | 0.00 | 10 | 1008.6 |
| 20260905045815 | 59 | 315 | 56.0 | 75.0 | 0.00 | 0.10 | 0.00 | 10 | 1008.3 |
| 20260905044815 | 59 | 315 | 56.0 | 75.0 | 0.00 | 0.10 | 0.00 | 10 | 1008.4 |
| 20260905043815 | 59 | 135 | 56.0 | 75.0 | 0.00 | 0.10 | 0.00 | 10 | 1008.1 |
| 20260905042815 | 59 | 315 | 56.0 | 75.0 | 0.00 | 0.10 | 0.00 | 10 | 1008.1 |
| 20260905041815 | 59 | 135 | 56.0 | 75.0 | 0.00 | 0.10 | 0.00 | 10 | 1007.8 |
| 20260905040815 | 59 | 112 | 56.0 | 75.0 | 0.00 | 0.10 | 0.00 | 10 | 1007.6 |
| 20260905035815 | 59 | 112 | 56.0 | 75.0 | 0.00 | 0.10 | 0.00 | 10 | 1007.6 |
| 20260905034815 | 59 | 315 | 56.0 | 75.0 | 0.00 | 0.10 | 0.00 | 10 | 1007.4 |
| 20260905033814 | 59 | 315 | 56.0 | 75.0 | 0.00 | 0.10 | 0.00 | 10 | 1007.4 |
| 20260905032814 | 59 | 315 | 56.0 | 75.0 | 0.00 | 0.10 | 0.00 | 10 | 1007.1 |
| 20260905031814 | 59 | 315 | 56.0 | 75.0 | 0.00 | 0.10 | 0.00 | 10 | 1006.8 |
| 20260905030814 | 59 | 315 | 56.0 | 75.0 | 0.00 | 0.10 | 0.00 | 10 | 1007.1 |
| 20260905025814 | 59 | 315 | 56.0 | 75.0 | 0.00 | 0.10 | 0.00 | 10 | 1006.8 |
| 20260905024814 | 59 | 315 | 56.0 | 75.0 | 0.00 | 0.10 | 0.00 | 10 | 1006.7 |
| 20260905023814 | 59 | 315 | 56.0 | 75.0 | 0.00 | 0.10 | 0.00 | 10 | 1006.8 |
| 20260905022814 | 59 | 315 | 56.0 | 75.0 | 0.00 | 0.10 | 0.00 | 10 | 1006.9 |
| 20260905021814 | 59 | 315 | 56.0 | 75.0 | 0.00 | 0.10 | 0.00 | 10 | 1006.7 |
| 20260905020814 | 59 | 315 | 56.0 | 75.0 | 0.00 | 0.10 | 0.00 | 10 | 1006.4 |
| 20260905015814 | 59 | 315 | 56.0 | 75.0 | 0.00 | 0.10 | 0.00 | 10 | 1006.8 |
| 20260905014814 | 59 | 45 | 56.0 | 75.0 | 0.00 | 0.10 | 0.00 | 10 | 1006.6 |
| 20260905013813 | 59 | 315 | 56.0 | 75.0 | 0.00 | 0.10 | 0.00 | 10 | 1006.8 |
| 20260905012813 | 59 | 315 | 56.0 | 75.0 | 0.00 | 0.10 | 0.00 | 10 | 1006.1 |
| 20260905011813 | 59 | 315 | 56.0 | 75.0 | 0.00 | 0.10 | 0.00 | 10 | 1006.2 |
| 20260905010813 | 60 | 315 | 56.0 | 75.0 | 0.00 | 0.10 | 0.00 | 10 | 1006.5 |
| 20260905005813 | 60 | 315 | 56.0 | 75.0 | 0.00 | 0.10 | 0.00 | 10 | 1006.6 |
| 20260905004813 | 60 | 315 | 56.0 | 75.0 | 0.00 | 0.10 | 0.00 | 10 | 1006.4 |
| 20260905003813 | 60 | 315 | 56.0 | 75.0 | 0.00 | 0.10 | 0.00 | 10 | 1006.4 |
| 20260905002813 | 60 | 22 | 56.0 | 75.0 | 0.00 | 0.10 | 0.00 | 10 | 1006.2 |
| 20260905001813 | 60 | 315 | 56.0 | 75.0 | 0.02 | 0.10 | 0.00 | 10 | 1006.1 |
| 20260905000813 | 60 | 202 | 56.0 | 75.0 | 0.02 | 0.10 | 0.00 | 10 | 1005.6 |
| 20260904235813 | 61 | 315 | 56.0 | 75.0 | 0.02 | 0.10 | 0.00 | 10 | 1005.4 |
| 20260904234813 | 61 | 180 | 56.0 | 75.0 | 0.02 | 0.10 | 0.00 | 10 | 1005.1 |
| 20260904233812 | 61 | 315 | 56.0 | 75.0 | 0.02 | 0.10 | 0.00 | 10 | 1005.2 |
| 20260904232812 | 62 | 315 | 56.0 | 75.0 | 0.00 | 0.08 | 0.00 | 10 | 1005.3 |
| 20260904231812 | 62 | 315 | 56.0 | 75.0 | 0.00 | 0.08 | 0.00 | 10 | 1005.1 |
| 20260904230812 | 63 | 0 | 56.0 | 75.0 | 0.00 | 0.08 | 0.00 | 10 | 1004.8 |
| 20260904225812 | 63 | 315 | 56.0 | 75.0 | 0.00 | 0.08 | 0.00 | 10 | 1004.5 |
| 20260904224812 | 63 | 315 | 56.0 | 75.0 | 0.00 | 0.08 | 0.00 | 10 | 1003.6 |
| 20260904223812 | 64 | 315 | 56.0 | 75.0 | 0.00 | 0.08 | 0.00 | 10 | 1004.2 |
| 20260904222812 | 64 | 90 | 56.0 | 75.0 | 0.00 | 0.08 | 0.00 | 10 | 1003.8 |
| 20260904221812 | 64 | 90 | 56.0 | 75.0 | 0.00 | 0.08 | 0.00 | 10 | 1004.0 |
| 20260904220812 | 65 | 315 | 56.0 | 75.0 | 0.02 | 0.08 | 0.00 | 10 | 1004.1 |
| 20260904215812 | 65 | 315 | 56.0 | 75.0 | 0.02 | 0.08 | 0.00 | 10 | 1003.9 |
| 20260904214811 | 65 | 315 | 56.0 | 75.0 | 0.02 | 0.08 | 0.00 | 10 | 1004.0 |
| 20260904213811 | 65 | 315 | 56.0 | 75.0 | 0.02 | 0.08 | 0.00 | 10 | 1004.1 |
| 20260904212811 | 65 | 315 | 56.0 | 75.0 | 0.02 | 0.08 | 0.00 | 12 | 1004.3 |
| 20260904211811 | 65 | 315 | 56.0 | 75.0 | 0.00 | 0.06 | 0.00 | 17 | 1004.5 |
| 20260904210811 | 66 | 315 | 56.0 | 75.0 | 0.06 | 0.06 | 0.00 | 23 | 1004.3 |
| 20260904205811 | 66 | 315 | 56.0 | 75.0 | 0.06 | 0.06 | 0.00 | 25 | 1003.9 |
| 20260904204811 | 66 | 112 | 56.0 | 75.0 | 0.06 | 0.06 | 0.00 | 28 | 1004.4 |
| 20260904203811 | 67 | 90 | 56.0 | 75.0 | 0.06 | 0.06 | 0.00 | 36 | 1004.0 |
| 20260904202811 | 67 | 315 | 56.0 | 75.0 | 0.06 | 0.06 | 0.00 | 45 | 1003.9 |
| 20260904201811 | 68 | 337 | 56.0 | 75.0 | 0.04 | 0.04 | 0.00 | 61 | 1004.4 |
| 20260904200811 | 70 | 90 | 56.0 | 75.0 | 0.00 | 0.00 | 0.00 | 70 | 1004.0 |
| 20260904195810 | 72 | 337 | 56.0 | 75.0 | 0.00 | 0.00 | 0.00 | 68 | 1002.5 |
| 20260904194810 | 72 | 337 | 56.0 | 75.0 | 0.00 | 0.00 | 0.00 | 68 | 1001.9 |
| 20260904193810 | 72 | 337 | 56.0 | 75.0 | 0.00 | 0.00 | 0.00 | 68 | 1002.0 |
| 20260904192810 | 72 | 337 | 56.0 | 75.0 | 0.00 | 0.00 | 0.00 | 68 | 1002.1 |
| 20260904191810 | 72 | 202 | 56.0 | 75.0 | 0.00 | 0.00 | 0.00 | 68 | 1002.3 |